Regional Weather Roundup
Issued by NWS

Home | Current Version | Previous Version | Text Only | Print | Product List | Glossary Off
Versions: 1 2 3 4 5 6 7 8 9 10 11 12 13 14 15 16 17 18 19 20 21 22 23 24 25 26 27 28 29 30 31 32 33 34 35 36 37 38 39 40 41 42 43 44 45 46 47 48 49 50

000
ASUS45 KTFX 050410
RWRMT
MONTANA REGIONAL WEATHER ROUNDUP
NATIONAL WEATHER SERVICE GREAT FALLS MT
900 PM MST SUN DEC 04 2016

NOTE: "FAIR" INDICATES FEW OR NO CLOUDS BELOW 12000 FEET WITH NO
SIGNIFICANT WEATHER AND/OR OBSTRUCTIONS TO VISIBILITY.

MTZ001>007-043-050500-
WEST OF THE DIVIDE

CITY           SKY/WX    TMP DP  RH WIND       PRES   REMARKS
KALISPELL      CLOUDY    30  22  72 SW6       29.66R WCI  24
MISSOULA       FLURRIES  29  26  89 NW7       29.76R WCI  22
BUTTE          CLOUDY    24  15  68 W9        29.61R WCI  14
MULLAN PASS    SNOW      17  15  92 VRB6      29.62S VSB 1/2 WCI   9
ANACONDA         N/A     25  19  80 W13G20    29.65R VSB 3/4 WCI  13
DEER LODGE       N/A     25  18  74 NW10      29.67R WCI  15
EUREKA           N/A     27  27 100 CALM      29.69R VSB 1/2
HAMILTON         N/A     30  19  64 CALM      29.75R
LIBBY            N/A     28  25  86 CALM      29.69S
PLAINS           N/A     30  24  78 CALM      29.77
RONAN            N/A     29  24  81 CALM      29.76S
$$

MTZ008-052>055-050500-
SOUTHWEST MONTANA

CITY           SKY/WX    TMP DP  RH WIND       PRES   REMARKS
BOZEMAN        CLOUDY    31  24  75 N6        29.60R WCI  25
DILLON         CLOUDY    28  17  63 SW9       29.59S WCI  19
ENNIS          MOCLDY    32  25  74 W5        29.63R
THREE FORKS      N/A     33 -45   2 CALM      29.65R
$$

MTZ009-010-012-014-046-048-049-054-050500-
EAST SLOPES AND CENTRAL MONTANA

CITY           SKY/WX    TMP DP  RH WIND       PRES   REMARKS
CUT BANK       MOCLDY    19  15  84 N18G28    29.68R WCI   4
GREAT FALLS    CLOUDY    23  17  78 NW18G29   29.65R WCI   9
MALMSTROM AFB  CLOUDY    24  20  85 N15G25    29.66R WCI  11
HELENA         MOCLDY    32  15  49 W14G23    29.63R WCI  22
AUGUSTA        FLURRIES  20  19  94 N20       29.63R WCI   4
BOWMANS CRNR   LGT SNOW  20  17  91 N21G26    29.59S WCI   3
CHOTEAU          N/A     21  19  93 N20       29.68R FOG     WCI   6
CONRAD           N/A     21  20  96 NW9       29.73R WCI  11
FAIRFIELD      FLURRIES  22  18  84 N9G17     29.66R WCI  12
POWER          MOCLDY    21  18  88 N23G32    29.62R WCI   5
RAYNESFORD     FLURRIES  23  20  89 NW16      29.63R WCI   9
ULM            FLURRIES  24  20  83 NW29G40   29.66R WCI   7
$$

MTZ011-013-016-021-045-047-050-051-050500-
NORTH CENTRAL MONTANA

CITY           SKY/WX    TMP DP  RH WIND       PRES   REMARKS
HAVRE          CLOUDY    27  22  81 N13       29.61R WCI  16
LEWISTOWN      CLOUDY    26  24  92 SW5       29.56F
N BAR RANCH    LGT SNOW  27  23  86 NW20      29.54S WCI  13
CHINOOK          N/A     28  23  80 NW8       29.58R WCI  20
DENTON         FLURRIES  27  23  83 NW16G36   29.55R WCI  15
GEYSER         FLURRIES  26  21  81 W16G22    29.57R WCI  14
GRASS RANGE    FLURRIES  27  25  89 W12       29.52F WCI  17
JUDITH GAP     FLURRIES  24  22  92 N14G22    29.55R WCI  12
ROY            MOCLDY    29  26  90 MISG      29.53R
STANFORD       FLURRIES  25  24  95 NW15      29.56F WCI  13
WINIFRED       FLURRIES  29  28  96 MISG      29.56R
$$

MTZ017>020-022>027-061-062-050500-
NORTHEAST MONTANA

CITY           SKY/WX    TMP DP  RH WIND       PRES   REMARKS
GLASGOW        LGT SNOW  32  31  96 W6        29.48R FOG     WCI  26
JORDAN           N/A     33  28  81 NW12      29.48R WCI  24
SIDNEY         CLOUDY    28  24  85 CALM      29.51F
WOLF POINT     MOCLDY    30  26  85 N8        29.48F WCI  22
PLENTYWOOD       N/A     27  21  80 E6        29.50F WCI  20
POPLAR           N/A     27  23  86 NE6       29.49F WCI  20
SCOBEY           N/A     28  17  63 SW1       29.49
$$

MTZ028>42-056>058-050500-
SOUTHCENTRAL AND SOUTHEAST MONTANA

CITY           SKY/WX    TMP DP  RH WIND       PRES   REMARKS
BAKER          PTCLDY    27  20  75 SE3       29.51F
BILLINGS       CLOUDY    34  29  82 N14       29.54S WCI  25
LIVINGSTON     LGT SNOW  30  24  78 NW12      29.56S WCI  20
MILES CITY     CLOUDY    39  29  67 W22       29.50R WCI  29
BIG TIMBER     MOCLDY    30  28  93 S9        29.57R FOG     WCI  22
FORSYTH          N/A     36  34  93 W16G24    29.52R WCI  26
HARLOWTON      MOCLDY    28  21  76 N16G24    29.54S WCI  16
LAUREL           N/A     35  16  46 W13       29.58R WCI  26
ROUNDUP          N/A     32  22  67 NW13      29.52R WCI  22
$$

REGIONAL REPORTS...DAKOTAS

CITY           SKY/WX    TMP DP  RH WIND       PRES   REMARKS
WILLISTON      MOCLDY    21  17  84 CALM      29.53F
MINOT          CLOUDY    15  12  88 CALM      29.59S
DICKINSON      CLOUDY    29  22  75 S7        29.52F WCI  22
BEACH          CLOUDY    32  27  80 S10       29.54F WCI  24
CROSBY         CLOUDY    23  23 100 NE6       29.57S WCI  16
TIOGA          CLOUDY    18  18 100 CALM      29.55F
WATFORD CITY     N/A     27  23  86 E10       29.53F WCI  17
BISMARCK       PTCLDY    18  16  92 NE6       29.64S WCI  10
GRAND FORKS    CLOUDY    30  25  81 W9        29.67R WCI  22
FARGO          PTCLDY    30  26  85 SW9       29.69S WCI  22
BUFFALO SD       N/A     32  22  66 S3        29.47F
RAPID CITY     PTCLDY    34  18  52 SE3       29.55F
$$

REGIONAL REPORTS...WYOMING/IDAHO/WASHINGTON

CITY           SKY/WX    TMP DP  RH WIND       PRES   REMARKS
GILLETTE       CLOUDY    40  22  48 SW15      29.51F
SHERIDAN       CLOUDY    32  23  69 CALM      29.50F
BUFFALO WY     CLEAR     39  18  42 SW8       29.50F
CODY           LGT SNOW  31  29  92 NE5       29.53S FOG
YELLOWSTONE LA   N/A     24  23  96 W8        29.56F WCI  15
IDAHO FALLS    CLOUDY    35  30  82 SW26G38   29.65F WCI  22
SALMON         CLOUDY    32  25  74 NW7       29.70R WCI  26
BOISE          CLOUDY    36  23  59 NW18      29.89R WCI  26
SPOKANE        PTCLDY    29  15  56 W15       29.87R WCI  18
$$

REGIONAL REPORTS...ALBERTA

CITY           SKY/WX    TMP DP  RH WIND       PRES   REMARKS
EDMONTON       CLOUDY     5  -2  72 NW21G35   29.85R WCI -16
CALGARY        MOCLDY    12   5  73 N8        29.72R WCI   1
LETHBRIDGE     LGT SNOW  23  21  93 N8        29.74R WCI  14
MEDICINE HAT   CLOUDY    23  14  68 NW13      29.70R WCI  11
WATERTON GATE    N/A     18  16  93 N7          N/A  WCI   8
CARDSTON         N/A     19  18  93 N10         N/A  WCI   8
MILK RIVER       N/A     19  18  93 N10         N/A  WCI   8
$$

REGIONAL REPORTS...SASKATCHEWAN

CITY           SKY/WX    TMP DP  RH WIND       PRES   REMARKS
SWIFT CURRENT  CLOUDY    23  19  86 N15       29.55R WCI  10
REGINA         CLOUDY    19  18  93 E7        29.54S WCI  10
SASKATOON      PTCLDY    14  10  85 W8        29.61S WCI   3
CYPRESS HILLS    N/A     18  14  86 N15G26      N/A  WCI   3
VAL MARIE        N/A     28  25  86 N12         N/A  WCI  18
ROCKGLEN         N/A     30  28  93 S3          N/A
ASSINIBOIA       N/A     10   3  72 NW20G25     N/A  WCI  -8
$$



USA.gov is the U.S. government's official web portal to all federal, state and local government web resources and services.